Date String (YYYY-MM-DD hh:mm:ss) UTC,Instrument flags,absolute air pressure of the measurement (hPa),sample flow rate (lpm),inlet stack bypass flow (lpm),air temperature of the measurement (°C),ambient temperature measured by the external sensor (°C),aerosol sample conditioner tube jacket temperature (°C),OPC LED temperature (°C),internal box temperature (°C),relative humidity of the measurement (%),span deviation,mass concentration of particles derived from Lorenz-Mie calculation of OPC scattering (μg/m³),mass concentration of particles derived from Lorenz-Mie calculation of OPC scattering (μg/m³),mass concentration of particles derived from Lorenz-Mie calculation of OPC scattering (μg/m³)
DateTimeUTC,F1_M11,P_M11,Q1_M11,Q2_M11,T1_M11,T2_M11,T3_M11,T4_M11,T5_M11,U1_M11,ZSPAN_M11,X0_M11,X2_M11,X1_M11
2023-07-11 22:00:00,SystemResetWarning,0829.4,5.00,000.00,028.6,026.3,000.0,036.8,030.2,17.3,0000.0,0011.57,0004.51,0003.66
2023-07-11 22:01:00,SystemResetWarning,0829.4,5.01,000.00,028.6,026.8,000.0,036.9,030.3,18.4,0000.0,0011.56,0004.47,0003.66
2023-07-11 22:02:00,SystemResetWarning,0829.3,5.00,000.00,028.7,027.1,000.0,036.9,030.4,18.0,0000.0,0011.63,0004.47,0003.66
2023-07-11 22:03:00,SystemResetWarning,0829.3,4.98,000.00,028.7,026.5,000.0,036.9,030.3,17.5,0000.0,0011.58,0004.44,0003.67
2023-07-11 22:04:00,SystemResetWarning,0829.3,5.00,000.00,028.6,025.0,000.0,036.8,030.1,17.2,0000.0,0011.63,0004.49,0003.69
2023-07-11 22:05:00,SystemResetWarning,0829.4,5.02,000.00,028.6,025.0,000.0,036.7,030.0,16.4,0000.0,0011.94,0004.53,0003.70
2023-07-11 22:06:00,SystemResetWarning,0829.3,5.00,000.00,028.5,025.4,000.0,036.8,030.0,16.0,0000.0,0012.06,0004.57,0003.71
2023-07-11 22:07:00,SystemResetWarning,0829.3,5.00,000.00,028.5,025.8,000.0,036.8,030.0,16.0,0000.0,0012.59,0004.56,0003.71
2023-07-11 22:08:00,SystemResetWarning,0829.3,4.99,000.00,028.5,026.3,000.0,036.8,030.2,17.1,0000.0,0012.36,0004.57,0003.72
2023-07-11 22:09:00,SystemResetWarning,0829.4,5.01,000.00,028.6,026.7,000.0,036.9,030.3,17.4,0000.0,0011.09,0004.57,0003.73
2023-07-11 22:10:00,SystemResetWarning,0829.3,4.99,000.00,028.6,027.1,000.0,036.9,030.4,17.0,0000.0,0011.39,0004.61,0003.74
2023-07-11 22:11:00,SystemResetWarning,0829.3,4.99,000.00,028.7,027.2,000.0,036.9,030.4,16.0,0000.0,0010.96,0004.57,0003.73
2023-07-11 22:12:00,SystemResetWarning,0829.3,5.00,000.00,028.7,025.8,000.0,036.8,030.2,16.6,0000.0,0010.87,0004.58,0003.73
2023-07-11 22:13:00,SystemResetWarning,0829.4,5.01,000.00,028.6,024.8,000.0,036.7,030.1,16.3,0000.0,0010.81,0004.57,0003.74
2023-07-11 22:14:00,SystemResetWarning,0829.4,5.02,000.00,028.6,025.2,000.0,036.7,030.0,17.4,0000.0,0010.84,0004.58,0003.74
2023-07-11 22:15:00,SystemResetWarning,0829.4,5.00,000.00,028.5,025.5,000.0,036.8,030.0,17.7,0000.0,0010.94,0004.54,0003.73
2023-07-11 22:16:00,SystemResetWarning,0829.4,4.99,000.00,028.5,026.0,000.0,036.8,030.1,16.9,0000.0,0010.65,0004.53,0003.73
2023-07-11 22:17:00,SystemResetWarning,0829.4,5.00,000.00,028.6,026.5,000.0,036.8,030.2,17.1,0000.0,0010.58,0004.48,0003.72
2023-07-11 22:18:00,SystemResetWarning,0829.4,5.00,000.00,028.6,026.9,000.0,036.9,030.3,17.1,0000.0,0010.14,0004.52,0003.72
2023-07-11 22:19:00,SystemResetWarning,0829.4,5.00,000.00,028.7,027.2,000.0,036.9,030.4,18.1,0000.0,0010.43,0004.54,0003.71
2023-07-11 22:20:00,SystemResetWarning,0829.4,4.98,000.00,028.7,026.7,000.0,036.9,030.4,17.9,0000.0,0010.64,0004.52,0003.71
2023-07-11 22:21:00,SystemResetWarning,0829.4,5.01,000.00,028.6,025.1,000.0,036.8,030.1,18.5,0000.0,0010.21,0004.48,0003.70
2023-07-11 22:22:00,SystemResetWarning,0829.4,5.01,000.00,028.6,025.0,000.0,036.7,030.0,16.4,0000.0,0010.40,0004.52,0003.71
2023-07-11 22:23:00,SystemResetWarning,0829.4,5.01,000.00,028.6,025.4,000.0,036.8,030.0,17.7,0000.0,0010.66,0004.51,0003.69
2023-07-11 22:24:00,SystemResetWarning,0829.4,4.99,000.00,028.5,025.8,000.0,036.8,030.0,17.5,0000.0,0010.42,0004.50,0003.68
2023-07-11 22:25:00,SystemResetWarning,0829.4,5.00,000.00,028.6,026.3,000.0,036.8,030.1,19.4,0000.0,0010.76,0004.52,0003.67
2023-07-11 22:26:00,SystemResetWarning,0829.4,5.00,000.00,028.6,026.7,000.0,036.9,030.3,18.3,0000.0,0011.96,0004.51,0003.66
2023-07-11 22:27:00,SystemResetWarning,0829.4,5.01,000.00,028.7,027.1,000.0,036.9,030.4,17.1,0000.0,0013.93,0004.52,0003.65
2023-07-11 22:28:00,SystemResetWarning,0829.3,5.01,000.00,028.7,027.2,000.0,036.9,030.5,16.8,0000.0,0013.89,0004.52,0003.65
2023-07-11 22:29:00,SystemResetWarning,0829.4,4.98,000.00,028.7,026.0,000.0,036.8,030.3,17.9,0000.0,0013.87,0004.49,0003.64
2023-07-11 22:30:00,SystemResetWarning,0829.4,5.01,000.00,028.6,024.9,000.0,036.8,030.1,16.0,0000.0,0014.31,0004.51,0003.65
2023-07-11 22:31:00,SystemResetWarning,0829.4,5.00,000.00,028.6,025.2,000.0,036.7,030.1,16.2,0000.0,0014.09,0004.54,0003.65
2023-07-11 22:32:00,SystemResetWarning,0829.4,5.00,000.00,028.6,025.6,000.0,036.8,030.0,15.6,0000.0,0014.08,0004.53,0003.65
2023-07-11 22:33:00,SystemResetWarning,0829.4,5.00,000.00,028.6,026.1,000.0,036.8,030.1,16.0,0000.0,0013.69,0004.49,0003.64
2023-07-11 22:34:00,SystemResetWarning,0829.4,5.00,000.00,028.6,026.5,000.0,036.9,030.2,16.3,0000.0,0013.72,0004.50,0003.64
2023-07-11 22:35:00,SystemResetWarning,0829.3,5.01,000.00,028.7,026.9,000.0,036.9,030.4,17.8,0000.0,0013.85,0004.49,0003.63
2023-07-11 22:36:00,SystemResetWarning,0829.3,5.00,000.00,028.7,027.3,000.0,036.9,030.5,16.4,0000.0,0014.22,0004.46,0003.64
2023-07-11 22:37:00,SystemResetWarning,0829.3,4.99,000.00,028.8,026.8,000.0,036.9,030.5,16.4,0000.0,0013.48,0004.47,0003.63
2023-07-11 22:38:00,SystemResetWarning,0829.3,5.00,000.00,028.7,025.2,000.0,036.8,030.2,17.2,0000.0,0011.22,0004.42,0003.63
2023-07-11 22:39:00,SystemResetWarning,0829.4,5.01,000.00,028.6,025.0,000.0,036.8,030.1,18.7,0000.0,0011.11,0004.41,0003.63
2023-07-11 22:40:00,SystemResetWarning,0829.3,5.00,000.00,028.6,025.4,000.0,036.8,030.1,18.7,0000.0,0011.42,0004.45,0003.62
2023-07-11 22:41:00,SystemResetWarning,0829.4,5.00,000.00,028.6,025.8,000.0,036.8,030.1,19.1,0000.0,0010.75,0004.42,0003.62
2023-07-11 22:42:00,SystemResetWarning,0829.4,5.00,000.00,028.6,026.3,000.0,036.8,030.2,20.2,0000.0,0010.71,0004.40,0003.61
2023-07-11 22:43:00,SystemResetWarning,0829.3,4.99,000.00,028.6,026.8,000.0,036.9,030.3,20.4,0000.0,0010.79,0004.44,0003.61
2023-07-11 22:44:00,SystemResetWarning,0829.3,5.00,000.00,028.7,027.2,000.0,036.9,030.4,21.1,0000.0,0010.88,0004.43,0003.59
2023-07-11 22:45:00,SystemResetWarning,0829.4,5.00,000.00,028.7,027.3,000.0,036.9,030.5,21.7,0000.0,0011.07,0004.40,0003.57
2023-07-11 22:46:00,SystemResetWarning,0829.4,4.98,000.00,028.7,026.1,000.0,036.9,030.3,20.7,0000.0,0012.25,0004.42,0003.57
2023-07-11 22:47:00,SystemResetWarning,0829.3,5.02,000.00,028.7,024.9,000.0,036.8,030.1,20.1,0000.0,0012.64,0004.53,0003.58
2023-07-11 22:48:00,SystemResetWarning,0829.3,5.00,000.00,028.6,025.2,000.0,036.8,030.1,19.5,0000.0,0012.86,0004.55,0003.59
2023-07-11 22:49:00,SystemResetWarning,0829.2,4.99,000.00,028.6,025.6,000.0,036.8,030.0,20.3,0000.0,0013.05,0004.58,0003.61
2023-07-11 22:50:00,SystemResetWarning,0829.2,5.00,000.00,028.6,026.0,000.0,036.8,030.1,19.9,0000.0,0012.99,0004.61,0003.63
2023-07-11 22:51:00,SystemResetWarning,0829.3,5.00,000.00,028.6,026.5,000.0,036.9,030.3,19.5,0000.0,0012.86,0004.60,0003.66
2023-07-11 22:52:00,SystemResetWarning,0829.3,5.00,000.00,028.7,027.0,000.0,036.9,030.4,19.4,0000.0,0013.59,0004.69,0003.68
2023-07-11 22:53:00,SystemResetWarning,0829.4,5.00,000.00,028.7,027.3,000.0,036.9,030.5,21.5,0000.0,0013.68,0004.73,0003.71
2023-07-11 22:54:00,SystemResetWarning,0829.3,4.99,000.00,028.8,027.5,000.0,037.0,030.6,20.1,0000.0,0014.43,0004.72,0003.73
2023-07-11 22:55:00,SystemResetWarning,0829.3,4.98,000.00,028.8,026.3,000.0,036.9,030.5,19.3,0000.0,0014.81,0004.79,0003.77
2023-07-11 22:56:00,SystemResetWarning,0829.3,5.02,000.00,028.7,025.0,000.0,036.8,030.2,19.8,0000.0,0015.39,0004.87,0003.80
2023-07-11 22:57:00,SystemResetWarning,0829.3,5.00,000.00,028.7,025.1,000.0,036.8,030.1,19.4,0000.0,0014.08,0004.85,0003.82
2023-07-11 22:58:00,SystemResetWarning,0829.3,5.00,000.00,028.6,025.5,000.0,036.8,030.1,20.3,0000.0,0014.34,0004.78,0003.83
2023-07-11 22:59:00,SystemResetWarning,0829.4,5.00,000.00,028.6,025.9,000.0,036.9,030.1,21.3,0000.0,0014.80,0004.78,0003.83
